This is the latest recevied weather packets stored in our database for station/object OK3MS-5. If no packets are shown the sender has not sent any weather packets the latest 10 day(s).
| Time | Temp. | Humidity | Pressure | Rain* | Wind** | Luminosity | Snow |
|---|---|---|---|---|---|---|---|
| 1777415103 | 7.78° C | 55% | 1022.1 hPa | 0 mm | - | 0 W/m² | - |
| 1777414804 | 7.78° C | 54% | 1022.2 hPa | 0 mm | - | 0 W/m² | - |
| 1777414203 | 7.78° C | 56% | 1021.9 hPa | 0 mm | - | 0 W/m² | - |
| 1777413609 | 7.78° C | 60% | 1022 hPa | 0 mm | - | 0 W/m² | - |
| 1777413304 | 7.78° C | 61% | 1021.9 hPa | 0 mm | - | 0 W/m² | - |
| 1777413007 | 7.78° C | 61% | 1021.9 hPa | 0 mm | - | 0 W/m² | - |
| 1777412703 | 8.33° C | 62% | 1021.9 hPa | 0 mm | - | 0 W/m² | - |
| 1777412410 | 8.33° C | 62% | 1021.9 hPa | 0 mm | - | 0 W/m² | - |
| 1777412103 | 8.33° C | 62% | 1021.8 hPa | 0 mm | - | 0 W/m² | - |
| 1777411805 | 8.33° C | 62% | 1021.6 hPa | 0 mm | - | 0 W/m² | - |
| 1777411503 | 8.33° C | 62% | 1021.6 hPa | 0 mm | - | 0 W/m² | - |
| 1777411205 | 8.33° C | 61% | 1021.5 hPa | 0 mm | - | 0 W/m² | - |
| 1777410909 | 8.33° C | 61% | 1021.5 hPa | 0 mm | - | 0 W/m² | - |
| 1777410604 | 8.89° C | 60% | 1021.3 hPa | 0 mm | - | 0 W/m² | - |
| 1777410310 | 8.89° C | 59% | 1021.2 hPa | 0 mm | - | 0 W/m² | - |
| 1777410003 | 8.89° C | 59% | 1021.1 hPa | 0 mm | - | 0 W/m² | - |
| 1777409705 | 8.33° C | 59% | 1021.2 hPa | 0 mm | - | 0 W/m² | - |
| 1777409408 | 8.33° C | 61% | 1021.1 hPa | 0 mm | - | 0 W/m² | - |
| 1777409103 | 8.89° C | 60% | 1021 hPa | 0 mm | - | 0 W/m² | - |
| 1777408804 | 9.44° C | 58% | 1021 hPa | 0 mm | - | 0 W/m² | - |
| 1777408503 | 10° C | 55% | 1020.7 hPa | 0 mm | - | 0 W/m² | - |
| 1777408204 | 10° C | 54% | 1020.6 hPa | 0 mm | - | 0 W/m² | - |
| 1777407902 | 10° C | 55% | 1020.5 hPa | 0 mm | - | 0 W/m² | - |
| 1777407603 | 10° C | 54% | 1020.5 hPa | 0 mm | - | 0 W/m² | - |
| 1777407302 | 10.56° C | 54% | 1020.3 hPa | 0 mm | - | 0 W/m² | - |
* Rain latest hour (hover to see other rain measurements)
** Current wind speed in m/s (hover to see current wind gust speed)